EW1708 Weather Reports


Display with metric or nautical units.
time (UTC)temp
F
wind
direction
speed
MPH
gust
MPH
rain 1hr
in
rain 24hr
in
rain mn
in
humidity
%
barometer
mb
20260906113225 66 81 6.0 9.0 0.00 0.00 0.00 92 1014.3
20260906112249 66 78 6.0 10.0 0.00 0.00 0.00 92 1014.5
20260906111308 66 78 6.0 11.0 0.00 0.00 0.00 92 1014.5
20260906110309 66 78 6.0 11.0 0.00 0.00 0.00 92 1014.6
20260906105316 66 76 7.0 11.0 0.00 0.00 0.00 92 1014.7
20260906104251 66 63 6.0 9.0 0.00 0.00 0.00 92 1014.6
20260906103252 66 74 5.0 9.0 0.00 0.00 0.00 92 1014.7
20260906102245 66 73 5.0 9.0 0.00 0.00 0.00 92 1014.8
20260906101214 67 72 5.0 8.0 0.00 0.00 0.00 92 1014.7
20260906100148 67 65 4.0 8.0 0.00 0.00 0.00 92 1014.9
20260906095212 67 65 3.0 6.0 0.00 0.00 0.00 92 1014.9
20260906094154 67 69 3.0 6.0 0.00 0.00 0.00 91 1015.0
20260906093157 68 71 4.0 6.0 0.00 0.00 0.00 91 1015.0
20260906092212 68 67 4.0 7.0 0.00 0.00 0.00 90 1015.0
20260906091201 69 73 3.0 9.0 0.00 0.00 0.00 90 1015.0
20260906090202 69 78 4.0 9.0 0.00 0.00 0.00 90 1015.0
20260906085157 69 72 4.0 7.0 0.00 0.00 0.00 90 1015.0
20260906084219 69 83 3.0 6.0 0.00 0.00 0.00 90 1015.1
20260906083220 69 78 1.0 4.0 0.00 0.00 0.00 90 1015.2
20260906082221 69 78 2.0 5.0 0.00 0.00 0.00 90 1015.3
20260906081242 69 77 2.0 5.0 0.00 0.00 0.00 90 1015.4
20260906080220 69 78 2.0 4.0 0.00 0.00 0.00 91 1015.6
20260906075213 69 76 2.0 4.0 0.00 0.00 0.00 92 1015.7
20260906074231 69 76 2.0 4.0 0.00 0.00 0.00 92 1015.7
20260906073206 68 76 2.0 5.0 0.00 0.00 0.00 93 1015.8
20260906071052 67 74 2.0 4.0 0.00 0.00 0.00 93 1015.8
20260906070032 67 74 2.0 4.0 0.00 0.00 0.00 92 1015.9
20260906065051 67 74 1.0 3.0 0.00 0.00 0.00 91 1015.8
20260906064110 67 74 2.0 3.0 0.00 0.00 0.00 90 1015.8
20260906063131 68 74 2.0 3.0 0.00 0.01 0.00 90 1015.9
20260906062058 68 74 2.0 6.0 0.00 0.03 0.00 90 1015.9
20260906061026 69 74 3.0 6.0 0.00 0.03 0.00 88 1015.8
20260906060022 69 75 4.0 7.0 0.00 0.03 0.00 88 1015.7
20260906055038 69 82 5.0 7.0 0.00 0.03 0.03 88 1015.7
20260906054042 70 79 4.0 7.0 0.00 0.03 0.03 88 1015.6
20260906053021 70 83 3.0 6.0 0.00 0.03 0.03 88 1015.5
20260906052044 70 83 3.0 7.0 0.00 0.03 0.03 88 1015.5
20260906051040 71 83 4.0 7.0 0.00 0.03 0.03 87 1015.5
20260906050036 72 91 4.0 7.0 0.00 0.03 0.03 86 1015.4
20260906045015 72 90 5.0 9.0 0.00 0.03 0.03 86 1015.6
20260906042921 73 80 4.0 8.0 0.00 0.03 0.03 84 1015.5
20260906041931 74 80 6.0 8.0 0.00 0.03 0.03 84 1015.5
20260906040941 73 84 5.0 8.0 0.00 0.03 0.03 85 1015.6
20260906035914 73 76 3.0 7.0 0.00 0.03 0.03 85 1015.5
20260906034936 73 71 3.0 6.0 0.00 0.03 0.03 85 1015.5
20260906033925 73 67 4.0 8.0 0.00 0.03 0.03 84 1015.4
20260906032903 73 62 6.0 8.0 0.00 0.03 0.03 84 1015.4
20260906030741 74 61 6.0 9.0 0.00 0.03 0.03 82 1015.4
20260906025732 74 59 7.0 9.0 0.00 0.03 0.03 81 1015.3
20260906024742 74 65 6.0 8.0 0.00 0.03 0.03 81 1015.4
20260906022629 75 60 7.0 11.0 0.00 0.03 0.03 81 1015.0
20260906021608 74 57 6.0 10.0 0.00 0.03 0.03 80 1014.8
20260906020547 75 57 5.0 7.0 0.00 0.03 0.03 81 1014.9
20260906015520 75 54 4.0 6.0 0.00 0.03 0.03 81 1014.7
20260906014540 75 59 3.0 6.0 0.00 0.03 0.03 80 1014.6
20260906013517 76 59 3.0 6.0 0.00 0.03 0.03 79 1014.6
20260906012513 76 63 3.0 4.0 0.00 0.03 0.03 78 1014.5
20260906011454 77 67 2.0 3.0 0.00 0.03 0.03 78 1014.4
20260906005323 77 67 1.0 2.0 0.00 0.03 0.03 76 1014.2
20260906004311 78 67 0.0 1.0 0.00 0.03 0.03 77 1014.2
20260906003241 78 67 0.0 2.0 0.00 0.03 0.03 77 1014.2
20260906002249 78 67 1.0 2.0 0.00 0.03 0.03 76 1014.1
20260905232759 79 77 0.0 0.0 0.00 0.03 0.03 73 1014.0
20260905231745 79 77 0.0 0.0 0.00 0.03 0.03 73 1014.0
20260905225543 79 77 0.0 0.0 0.00 0.03 0.03 74 1013.9
20260905224555 79 82 1.0 2.0 0.00 0.03 0.03 71 1013.7
20260905223523 79 82 2.0 2.0 0.00 0.03 0.03 69 1013.6
20260905221423 80 135 0.0 0.0 0.00 0.03 0.03 69 1013.6
20260905220357 80 135 0.0 0.0 0.00 0.03 0.03 68 1013.7
20260905215413 80 135 1.0 3.0 0.00 0.03 0.03 69 1013.7
20260905214412 79 123 2.0 6.0 0.00 0.03 0.03 68 1013.7
20260905213357 80 116 2.0 6.0 0.00 0.03 0.03 68 1013.7
20260905211223 79 115 3.0 7.0 0.00 0.03 0.03 69 1013.8
20260905210148 79 115 2.0 6.0 0.00 0.03 0.03 69 1013.9
20260905205129 79 103 2.0 6.0 0.00 0.03 0.03 68 1013.9
20260905204108 79 165 1.0 4.0 0.00 0.03 0.03 71 1014.1
20260905203126 79 161 1.0 5.0 0.00 0.03 0.03 70 1014.2
20260905202117 79 153 2.0 5.0 0.00 0.03 0.03 69 1014.2
20260905201131 79 153 1.0 7.0 0.00 0.03 0.03 69 1014.2
20260905200057 79 130 3.0 7.0 0.00 0.03 0.03 68 1014.3
20260905193923 78 108 2.0 7.0 0.00 0.03 0.03 69 1014.3
20260905192923 78 107 3.0 7.0 0.00 0.03 0.03 70 1014.2
20260905190744 78 136 5.0 11.0 0.00 0.03 0.03 68 1014.2
20260905185742 79 130 5.0 10.0 0.00 0.03 0.03 68 1014.2
20260905184746 79 115 5.0 8.0 0.00 0.03 0.03 67 1014.3
20260905183713 78 148 6.0 9.0 0.00 0.03 0.03 69 1014.2
20260905182649 77 139 5.0 13.0 0.00 0.03 0.03 70 1014.2
20260905181626 77 147 7.0 13.0 0.00 0.03 0.03 70 1014.2
20260905180604 77 153 6.0 14.0 0.00 0.03 0.03 69 1014.4
20260905174444 78 150 6.0 17.0 0.00 0.03 0.03 68 1014.3
20260905172335 77 119 9.0 20.0 0.00 0.03 0.03 71 1014.1
20260905171348 77 136 11.0 20.0 0.00 0.03 0.03 69 1014.3
20260905170335 77 127 9.0 17.0 0.00 0.03 0.03 69 1014.2
20260905165318 76 119 9.0 16.0 0.00 0.03 0.03 71 1014.3
20260905163136 76 135 9.0 18.0 0.00 0.03 0.03 72 1014.3
20260905162136 75 136 9.0 14.0 0.00 0.03 0.03 74 1014.3
20260905161105 75 144 8.0 13.0 0.00 0.03 0.03 75 1014.3
20260905160038 74 149 7.0 14.0 0.00 0.03 0.03 76 1014.3
20260905155020 73 140 7.0 14.0 0.00 0.03 0.03 78 1014.3
20260905154013 73 130 7.0 13.0 0.00 0.03 0.03 77 1014.4
20260905153016 72 100 8.0 13.0 0.00 0.03 0.03 80 1014.3
20260905152007 72 118 7.0 12.0 0.00 0.03 0.03 80 1014.3
20260905150934 71 101 7.0 12.0 0.00 0.03 0.03 81 1014.3
20260905145911 71 108 7.0 12.0 0.00 0.03 0.03 82 1014.4
20260905144931 70 104 8.0 13.0 0.00 0.03 0.03 82 1014.3
20260905143928 70 126 7.0 13.0 0.00 0.03 0.03 82 1014.3
20260905142901 70 115 5.0 9.0 0.00 0.03 0.03 84 1014.4
20260905141845 68 78 4.0 10.0 0.00 0.03 0.03 87 1014.2
20260905140904 67 87 7.0 10.0 0.00 0.03 0.03 88 1014.2
20260905135848 67 91 5.0 9.0 0.00 0.03 0.03 89 1014.1
20260905134910 66 83 5.0 9.0 0.00 0.03 0.03 91 1014.0
20260905133845 65 84 3.0 7.0 0.00 0.03 0.03 92 1013.9
20260905132813 64 70 2.0 4.0 0.00 0.03 0.03 93 1013.9
20260905131807 64 71 1.0 3.0 0.00 0.03 0.03 93 1013.8
20260905130753 63 76 0.0 2.0 0.00 0.03 0.03 93 1013.7
20260905125813 63 76 0.0 0.0 0.00 0.03 0.03 92 1013.3
20260905124813 63 77 0.0 0.0 0.00 0.03 0.03 92 1013.1
20260905123833 63 77 0.0 0.0 0.00 0.03 0.03 92 1013.0
20260905122841 63 77 0.0 0.0 0.00 0.03 0.03 91 1012.8
20260905121818 63 78 1.0 0.0 0.00 0.03 0.03 91 1012.6
20260905120822 64 82 3.0 6.0 0.00 0.03 0.03 91 1012.4
20260905115803 64 89 4.0 8.0 0.00 0.03 0.03 90 1012.2
20260905114804 64 83 5.0 9.0 0.00 0.03 0.03 90 1012.3